| time (UTC) | temp F | wind direction | speed MPH | gust MPH | rain 1hr in | rain 24hr in | rain mn in | humidity % | barometer mb |
| 20260901163341 | 89 | 151 | 3.0 | 7.0 | 0.00 | 0.00 | 0.00 | 50 | 1013.7 |
| 20260901162333 | 88 | 148 | 2.0 | 8.0 | 0.00 | 0.00 | 0.00 | 52 | 1013.5 |
| 20260901161339 | 88 | 101 | 4.0 | 10.0 | 0.00 | 0.00 | 0.00 | 51 | 1013.5 |
| 20260901160345 | 87 | 109 | 2.0 | 8.0 | 0.00 | 0.00 | 0.00 | 51 | 1013.4 |
| 20260901155330 | 87 | 128 | 3.0 | 7.0 | 0.00 | 0.08 | 0.00 | 52 | 1013.4 |
| 20260901154341 | 86 | 78 | 2.0 | 8.0 | 0.00 | 0.08 | 0.00 | 53 | 1013.3 |
| 20260901153328 | 86 | 119 | 2.0 | 8.0 | 0.00 | 0.08 | 0.00 | 53 | 1013.3 |
| 20260901152336 | 85 | 88 | 3.0 | 7.0 | 0.00 | 0.08 | 0.00 | 55 | 1013.3 |
| 20260901151327 | 84 | 58 | 2.0 | 8.0 | 0.00 | 0.08 | 0.00 | 56 | 1013.1 |
| 20260901150333 | 84 | 58 | 4.0 | 9.0 | 0.00 | 0.08 | 0.00 | 56 | 1013.1 |
| 20260901145359 | 83 | 113 | 2.0 | 8.0 | 0.00 | 0.21 | 0.00 | 57 | 1013.1 |
| 20260901144344 | 83 | 67 | 2.0 | 5.0 | 0.00 | 0.21 | 0.00 | 58 | 1013.1 |
| 20260901143331 | 82 | 104 | 1.0 | 4.0 | 0.00 | 0.21 | 0.00 | 61 | 1013.0 |
| 20260901142343 | 81 | 53 | 0.0 | 3.0 | 0.00 | 0.21 | 0.00 | 64 | 1013.1 |
| 20260901141330 | 80 | 110 | 1.0 | 3.0 | 0.00 | 0.21 | 0.00 | 66 | 1013.1 |
| 20260901140337 | 79 | 84 | 0.0 | 1.0 | 0.00 | 0.21 | 0.00 | 68 | 1013.1 |
| 20260901135404 | 78 | 101 | 0.0 | 2.0 | 0.00 | 0.22 | 0.00 | 69 | 1013.0 |
| 20260901134333 | 78 | 67 | 0.0 | 1.0 | 0.00 | 0.22 | 0.00 | 69 | 1012.9 |
| 20260901133339 | 78 | 67 | 0.0 | 0.0 | 0.00 | 0.22 | 0.00 | 69 | 1012.9 |
| 20260901132327 | 78 | 67 | 0.0 | 0.0 | 0.00 | 0.22 | 0.00 | 69 | 1012.7 |
| 20260901131354 | 78 | 67 | 0.0 | 1.0 | 0.00 | 0.22 | 0.00 | 69 | 1012.6 |
| 20260901130344 | 78 | 65 | 0.0 | 1.0 | 0.00 | 0.22 | 0.00 | 69 | 1012.4 |
| 20260901125331 | 78 | 95 | 0.0 | 0.0 | 0.00 | 0.22 | 0.00 | 68 | 1012.5 |
| 20260901124337 | 78 | 95 | 0.0 | 0.0 | 0.00 | 0.22 | 0.00 | 67 | 1012.5 |
| 20260901123345 | 78 | 95 | 0.0 | 0.0 | 0.00 | 0.22 | 0.00 | 66 | 1012.4 |
| 20260901122356 | 78 | 95 | 0.0 | 0.0 | 0.00 | 0.22 | 0.00 | 65 | 1012.4 |
| 20260901121341 | 79 | 95 | 0.0 | 1.0 | 0.00 | 0.22 | 0.00 | 65 | 1012.3 |
| 20260901120345 | 79 | 80 | 0.0 | 0.0 | 0.00 | 0.22 | 0.00 | 64 | 1012.2 |
| 20260901115331 | 79 | 80 | 0.0 | 1.0 | 0.00 | 0.22 | 0.00 | 64 | 1012.1 |
| 20260901114341 | 79 | 74 | 0.0 | 1.0 | 0.00 | 0.22 | 0.00 | 63 | 1012.1 |
| 20260901113327 | 79 | 76 | 0.0 | 1.0 | 0.00 | 0.22 | 0.00 | 63 | 1012.1 |
| 20260901112334 | 79 | 80 | 1.0 | 4.0 | 0.00 | 0.22 | 0.00 | 63 | 1011.9 |
| 20260901111400 | 79 | 66 | 1.0 | 4.0 | 0.00 | 0.22 | 0.00 | 64 | 1012.0 |
| 20260901110331 | 79 | 67 | 0.0 | 3.0 | 0.00 | 0.22 | 0.00 | 65 | 1011.9 |
| 20260901105338 | 79 | 66 | 1.0 | 4.0 | 0.00 | 0.22 | 0.00 | 65 | 1011.9 |
| 20260901104345 | 79 | 45 | 0.0 | 0.0 | 0.00 | 0.22 | 0.00 | 67 | 1011.9 |
| 20260901103351 | 79 | 67 | 0.0 | 0.0 | 0.00 | 0.22 | 0.00 | 67 | 1011.9 |
| 20260901102336 | 79 | 84 | 0.0 | 2.0 | 0.00 | 0.22 | 0.00 | 67 | 1012.0 |
| 20260901101405 | 79 | 78 | 0.0 | 0.0 | 0.00 | 0.22 | 0.00 | 66 | 1012.0 |
| 20260901100331 | 79 | 67 | 0.0 | 1.0 | 0.00 | 0.22 | 0.00 | 66 | 1012.0 |
| 20260901095337 | 79 | 75 | 0.0 | 2.0 | 0.00 | 0.22 | 0.00 | 66 | 1012.0 |
| 20260901094345 | 79 | 90 | 0.0 | 3.0 | 0.00 | 0.22 | 0.00 | 66 | 1012.0 |
| 20260901093335 | 79 | 102 | 0.0 | 2.0 | 0.00 | 0.22 | 0.00 | 66 | 1012.1 |
| 20260901092342 | 80 | 59 | 0.0 | 2.0 | 0.00 | 0.22 | 0.00 | 65 | 1012.1 |
| 20260901091331 | 80 | 65 | 1.0 | 2.0 | 0.00 | 0.22 | 0.00 | 65 | 1012.0 |
| 20260901090338 | 80 | 99 | 0.0 | 2.0 | 0.00 | 0.22 | 0.00 | 64 | 1012.1 |
| 20260901085328 | 80 | 61 | 0.0 | 1.0 | 0.00 | 0.22 | 0.00 | 64 | 1012.2 |
| 20260901084334 | 80 | 56 | 0.0 | 0.0 | 0.00 | 0.22 | 0.00 | 63 | 1012.2 |
| 20260901083340 | 80 | 55 | 0.0 | 0.0 | 0.00 | 0.22 | 0.00 | 62 | 1012.2 |
| 20260901082329 | 81 | 46 | 0.0 | 2.0 | 0.00 | 0.22 | 0.00 | 62 | 1012.2 |
| 20260901081335 | 81 | 67 | 0.0 | 3.0 | 0.00 | 0.22 | 0.00 | 62 | 1012.2 |
| 20260901080342 | 81 | 61 | 1.0 | 3.0 | 0.00 | 0.22 | 0.00 | 61 | 1012.2 |
| 20260901075329 | 81 | 88 | 1.0 | 2.0 | 0.00 | 0.22 | 0.00 | 60 | 1012.2 |
| 20260901074341 | 81 | 80 | 0.0 | 1.0 | 0.00 | 0.22 | 0.00 | 59 | 1012.3 |
| 20260901073327 | 82 | 57 | 0.0 | 3.0 | 0.00 | 0.22 | 0.00 | 58 | 1012.2 |
| 20260901072333 | 82 | 46 | 1.0 | 3.0 | 0.00 | 0.22 | 0.00 | 57 | 1012.1 |
| 20260901071341 | 82 | 70 | 0.0 | 3.0 | 0.00 | 0.22 | 0.00 | 56 | 1012.0 |
| 20260901070332 | 83 | 54 | 0.0 | 2.0 | 0.00 | 0.22 | 0.00 | 56 | 1012.0 |
| 20260901065340 | 83 | 21 | 0.0 | 1.0 | 0.00 | 0.23 | 0.22 | 56 | 1011.9 |
| 20260901064326 | 83 | 38 | 0.0 | 2.0 | 0.00 | 0.23 | 0.22 | 55 | 1011.9 |
| 20260901063333 | 83 | 97 | 1.0 | 3.0 | 0.00 | 0.23 | 0.22 | 55 | 1011.8 |
| 20260901062343 | 83 | 116 | 0.0 | 4.0 | 0.00 | 0.23 | 0.22 | 55 | 1011.8 |
| 20260901061331 | 83 | 153 | 2.0 | 4.0 | 0.00 | 0.23 | 0.22 | 54 | 1011.7 |
| 20260901060338 | 83 | 128 | 0.0 | 3.0 | 0.00 | 0.23 | 0.22 | 53 | 1011.6 |
| 20260901055344 | 84 | 101 | 0.0 | 3.0 | 0.00 | 0.25 | 0.22 | 53 | 1011.5 |
| 20260901054335 | 84 | 159 | 1.0 | 6.0 | 0.00 | 0.25 | 0.22 | 53 | 1011.6 |
| 20260901053402 | 84 | 97 | 2.0 | 5.0 | 0.00 | 0.25 | 0.22 | 53 | 1011.6 |
| 20260901052347 | 84 | 171 | 1.0 | 4.0 | 0.00 | 0.25 | 0.22 | 53 | 1011.6 |
| 20260901051335 | 84 | 146 | 3.0 | 7.0 | 0.00 | 0.25 | 0.22 | 52 | 1011.6 |
| 20260901050326 | 84 | 134 | 2.0 | 9.0 | 0.00 | 0.25 | 0.22 | 52 | 1011.6 |
| 20260901045333 | 84 | 136 | 2.0 | 6.0 | 0.00 | 0.26 | 0.22 | 51 | 1011.5 |
| 20260901044340 | 84 | 107 | 3.0 | 6.0 | 0.00 | 0.26 | 0.22 | 50 | 1011.5 |
| 20260901043328 | 85 | 143 | 1.0 | 4.0 | 0.00 | 0.26 | 0.22 | 51 | 1011.5 |
| 20260901042338 | 85 | 151 | 4.0 | 9.0 | 0.00 | 0.26 | 0.22 | 50 | 1011.4 |
| 20260901041326 | 85 | 147 | 3.0 | 5.0 | 0.00 | 0.26 | 0.22 | 50 | 1011.3 |
| 20260901040353 | 85 | 140 | 3.0 | 5.0 | 0.00 | 0.26 | 0.22 | 49 | 1011.3 |
| 20260901035339 | 86 | 196 | 3.0 | 5.0 | 0.00 | 0.26 | 0.22 | 49 | 1011.3 |
| 20260901034329 | 86 | 204 | 1.0 | 7.0 | 0.00 | 0.26 | 0.22 | 48 | 1011.3 |
| 20260901033336 | 86 | 146 | 1.0 | 5.0 | 0.00 | 0.26 | 0.22 | 47 | 1011.1 |
| 20260901032344 | 86 | 186 | 2.0 | 5.0 | 0.00 | 0.26 | 0.22 | 46 | 1011.1 |
| 20260901031328 | 86 | 173 | 1.0 | 5.0 | 0.00 | 0.26 | 0.22 | 46 | 1010.8 |
| 20260901030339 | 86 | 182 | 3.0 | 7.0 | 0.00 | 0.26 | 0.22 | 46 | 1010.7 |
| 20260901025325 | 86 | 165 | 3.0 | 6.0 | 0.00 | 0.26 | 0.22 | 46 | 1010.5 |
| 20260901024333 | 86 | 185 | 3.0 | 5.0 | 0.00 | 0.26 | 0.22 | 46 | 1010.4 |
| 20260901023341 | 86 | 150 | 1.0 | 2.0 | 0.00 | 0.26 | 0.22 | 46 | 1010.2 |
| 20260901022330 | 87 | 167 | 1.0 | 3.0 | 0.00 | 0.26 | 0.22 | 46 | 1010.2 |
| 20260901021357 | 87 | 129 | 0.0 | 1.0 | 0.00 | 0.26 | 0.22 | 45 | 1010.2 |
| 20260901020343 | 87 | 129 | 0.0 | 1.0 | 0.00 | 0.26 | 0.22 | 45 | 1010.2 |
| 20260901015331 | 87 | 119 | 0.0 | 1.0 | 0.00 | 0.26 | 0.22 | 46 | 1010.3 |
| 20260901014401 | 87 | 82 | 0.0 | 2.0 | 0.00 | 0.26 | 0.22 | 45 | 1010.2 |
| 20260901013345 | 88 | 88 | 1.0 | 2.0 | 0.00 | 0.26 | 0.22 | 44 | 1010.1 |
| 20260901012331 | 88 | 142 | 2.0 | 5.0 | 0.00 | 0.26 | 0.22 | 44 | 1010.3 |
| 20260901011337 | 88 | 86 | 1.0 | 4.0 | 0.00 | 0.26 | 0.22 | 44 | 1010.1 |
| 20260901010348 | 89 | 124 | 3.0 | 5.0 | 0.00 | 0.26 | 0.22 | 43 | 1010.4 |
| 20260901005354 | 89 | 167 | 3.0 | 7.0 | 0.00 | 0.26 | 0.22 | 42 | 1010.3 |
| 20260901004340 | 89 | 158 | 3.0 | 7.0 | 0.00 | 0.26 | 0.22 | 42 | 1010.2 |
| 20260901003328 | 90 | 53 | 4.0 | 8.0 | 0.00 | 0.26 | 0.22 | 43 | 1010.0 |
| 20260901002334 | 90 | 107 | 3.0 | 7.0 | 0.00 | 0.26 | 0.22 | 42 | 1010.3 |
| 20260901001345 | 90 | 65 | 1.0 | 6.0 | 0.00 | 0.26 | 0.22 | 42 | 1010.5 |
| 20260901000353 | 90 | 117 | 4.0 | 11.0 | 0.00 | 0.26 | 0.22 | 43 | 1010.4 |
| 20260831235337 | 90 | 86 | 3.0 | 11.0 | 0.00 | 0.26 | 0.22 | 44 | 1010.6 |
| 20260831234345 | 90 | 32 | 2.0 | 8.0 | 0.00 | 0.26 | 0.22 | 45 | 1010.6 |
| 20260831233337 | 90 | 75 | 4.0 | 7.0 | 0.00 | 0.26 | 0.22 | 45 | 1010.7 |
| 20260831232345 | 89 | 39 | 3.0 | 10.0 | 0.00 | 0.26 | 0.22 | 46 | 1010.9 |
| 20260831231331 | 89 | 92 | 5.0 | 9.0 | 0.00 | 0.26 | 0.22 | 46 | 1010.9 |
| 20260831230338 | 89 | 111 | 3.0 | 10.0 | 0.00 | 0.26 | 0.22 | 46 | 1010.9 |
| 20260831225329 | 88 | 60 | 4.0 | 12.0 | 0.00 | 0.26 | 0.22 | 47 | 1011.0 |
| 20260831224335 | 89 | 86 | 4.0 | 14.0 | 0.00 | 0.26 | 0.22 | 46 | 1011.0 |
| 20260831223342 | 89 | 165 | 6.0 | 11.0 | 0.00 | 0.26 | 0.22 | 45 | 1011.1 |
| 20260831222330 | 88 | 159 | 5.0 | 11.0 | 0.00 | 0.26 | 0.22 | 47 | 1011.3 |
| 20260831221342 | 88 | 78 | 4.0 | 10.0 | 0.00 | 0.26 | 0.22 | 48 | 1011.6 |
| 20260831220330 | 87 | 203 | 5.0 | 11.0 | 0.00 | 0.26 | 0.22 | 48 | 1011.9 |
| 20260831215337 | 87 | 167 | 6.0 | 14.0 | 0.00 | 0.26 | 0.22 | 48 | 1012.2 |
| 20260831214329 | 87 | 173 | 6.0 | 15.0 | 0.00 | 0.26 | 0.22 | 48 | 1012.4 |
| 20260831213356 | 87 | 156 | 5.0 | 14.0 | 0.00 | 0.26 | 0.22 | 49 | 1012.7 |
| 20260831212342 | 87 | 53 | 7.0 | 13.0 | 0.00 | 0.26 | 0.22 | 50 | 1013.0 |
| 20260831211331 | 86 | 175 | 5.0 | 15.0 | 0.00 | 0.26 | 0.22 | 53 | 1013.2 |
| 20260831210336 | 86 | 128 | 4.0 | 14.0 | 0.00 | 0.26 | 0.22 | 54 | 1013.3 |
| 20260831205348 | 86 | 107 | 9.0 | 17.0 | 0.00 | 0.26 | 0.22 | 52 | 1013.6 |
| 20260831204333 | 86 | 160 | 5.0 | 14.0 | 0.00 | 0.26 | 0.22 | 52 | 1013.7 |
| 20260831203340 | 86 | 163 | 8.0 | 15.0 | 0.00 | 0.26 | 0.22 | 51 | 1013.8 |
| 20260831202407 | 85 | 163 | 6.0 | 16.0 | 0.00 | 0.26 | 0.22 | 53 | 1013.9 |
| 20260831201337 | 85 | 133 | 7.0 | 12.0 | 0.00 | 0.26 | 0.22 | 54 | 1013.9 |
| 20260831200344 | 85 | 92 | 5.0 | 10.0 | 0.00 | 0.26 | 0.22 | 57 | 1014.0 |
| 20260831195329 | 85 | 145 | 7.0 | 14.0 | 0.00 | 0.26 | 0.22 | 56 | 1013.9 |
| 20260831194336 | 83 | 188 | 7.0 | 12.0 | 0.00 | 0.26 | 0.22 | 58 | 1014.0 |
| 20260831193341 | 83 | 146 | 5.0 | 13.0 | 0.00 | 0.26 | 0.22 | 59 | 1014.1 |
| 20260831192332 | 82 | 101 | 7.0 | 14.0 | 0.00 | 0.26 | 0.22 | 60 | 1014.1 |
| 20260831191339 | 82 | 98 | 8.0 | 12.0 | 0.00 | 0.26 | 0.22 | 61 | 1014.2 |
| 20260831190326 | 81 | 137 | 5.0 | 12.0 | 0.00 | 0.26 | 0.22 | 67 | 1014.4 |
| 20260831185338 | 80 | 71 | 3.0 | 11.0 | 0.00 | 0.26 | 0.22 | 71 | 1014.6 |
| 20260831184345 | 80 | 67 | 2.0 | 6.0 | 0.00 | 0.26 | 0.22 | 73 | 1014.5 |
| 20260831183331 | 79 | 66 | 3.0 | 10.0 | 0.00 | 0.26 | 0.22 | 74 | 1014.5 |
| 20260831182338 | 79 | 142 | 3.0 | 10.0 | 0.00 | 0.26 | 0.22 | 75 | 1014.4 |
| 20260831181328 | 79 | 105 | 5.0 | 11.0 | 0.00 | 0.26 | 0.22 | 74 | 1014.6 |
| 20260831180336 | 78 | 119 | 6.0 | 11.0 | 0.00 | 0.26 | 0.22 | 74 | 1014.6 |
| 20260831175340 | 78 | 171 | 4.0 | 13.0 | 0.00 | 0.26 | 0.22 | 75 | 1014.6 |
| 20260831174326 | 78 | 90 | 5.0 | 10.0 | 0.00 | 0.26 | 0.22 | 76 | 1014.6 |
| 20260831173337 | 78 | 113 | 5.0 | 11.0 | 0.00 | 0.26 | 0.22 | 77 | 1014.7 |
| 20260831172345 | 78 | 114 | 4.0 | 10.0 | 0.00 | 0.26 | 0.22 | 78 | 1014.9 |
| 20260831171331 | 77 | 65 | 2.0 | 7.0 | 0.00 | 0.26 | 0.22 | 80 | 1014.9 |
| 20260831170358 | 77 | 62 | 3.0 | 9.0 | 0.00 | 0.26 | 0.22 | 82 | 1014.7 |
| 20260831165404 | 76 | 93 | 2.0 | 11.0 | 0.00 | 0.26 | 0.22 | 82 | 1014.8 |
| 20260831164353 | 76 | 66 | 1.0 | 9.0 | 0.00 | 0.26 | 0.22 | 84 | 1014.7 |